When you browse on this site, cookies collect data to enhance your experience and personalize the content and advertising you see.
Visit our Privacy Policy to learn more. By continuing to use the site, you agree to this use of cookies and data.
  • In Schweiz
  • Länderverzeichnis
  • Für 7 Tage
  • Wassertemperatur
  • Wetterkarte
  • Widgets
  • user-avatar
    Anmelden

    Stündliche Wetter Prisele

    Heute, 24 August, Samstag

    Zeit Temperatur Niederschläge Wind Luftdruck Luftfeuchtigkeit
    00:00 +13°C° 0 mm 1 m/S 753 mmHg 90%
    01:00 +13°C° 0 mm 1 m/S 753 mmHg 90%
    02:00 +12°C° 0 mm 1 m/S 753 mmHg 91%
    03:00 +12°C° 0 mm 1 m/S 753 mmHg 91%
    04:00 +12°C° 0 mm 1 m/S 752 mmHg 92%
    05:00 +12°C° 0 mm 1 m/S 752 mmHg 92%
    06:00 +14°C° 0 mm 2 m/S 752 mmHg 86%
    07:00 +16°C° 0 mm 2 m/S 752 mmHg 80%
    08:00 +17°C° 0 mm 2 m/S 752 mmHg 74%
    09:00 +19°C° 0 mm 2 m/S 752 mmHg 69%
    10:00 +20°C° 0 mm 3 m/S 752 mmHg 64%
    11:00 +22°C° 0 mm 3 m/S 752 mmHg 59%
    12:00 +22°C° 0 mm 4 m/S 751 mmHg 58%
    13:00 +23°C° 0 mm 4 m/S 751 mmHg 57%
    14:00 +23°C° 0 mm 4 m/S 751 mmHg 56%
    15:00 +24°C° 0 mm 3 m/S 751 mmHg 60%
    16:00 +22°C° 0 mm 3 m/S 750 mmHg 64%
    17:00 +22°C° 0 mm 3 m/S 750 mmHg 68%
    18:00 +20°C° 0 mm 2 m/S 750 mmHg 75%
    19:00 +18°C° 0 mm 2 m/S 750 mmHg 82%
    20:00 +17°C° 0 mm 2 m/S 750 mmHg 88%
    21:00 +16°C° 0 mm 2 m/S 750 mmHg 91%
    22:00 +15°C° 0 mm 2 m/S 751 mmHg 93%
    23:00 +15°C° 0 mm 1 m/S 751 mmHg 96%

    Morgen, 25 August, Sonntag

    Zeit Temperatur Niederschläge Wind Luftdruck Luftfeuchtigkeit
    00:00 +14°C° 0 mm 1 m/S 751 mmHg 96%
    01:00 +14°C° 0 mm 1 m/S 751 mmHg 95%
    02:00 +14°C° 0 mm 1 m/S 751 mmHg 95%
    03:00 +13°C° 0 mm 1 m/S 751 mmHg 96%
    04:00 +13°C° 0 mm 1 m/S 752 mmHg 96%
    05:00 +12°C° 0 mm 1 m/S 752 mmHg 96%
    06:00 +14°C° 0 mm 1 m/S 752 mmHg 90%
    07:00 +15°C° 0 mm 2 m/S 752 mmHg 84%
    08:00 +17°C° 0 mm 2 m/S 753 mmHg 78%
    09:00 +18°C° 0 mm 2 m/S 753 mmHg 71%
    10:00 +19°C° 0 mm 2 m/S 753 mmHg 63%
    11:00 +20°C° 0 mm 2 m/S 753 mmHg 56%
    12:00 +21°C° 0 mm 2 m/S 753 mmHg 54%
    13:00 +21°C° 0 mm 2 m/S 753 mmHg 52%
    14:00 +23°C° 0 mm 2 m/S 753 mmHg 51%
    15:00 +22°C° 0 mm 1 m/S 753 mmHg 56%
    16:00 +22°C° 0 mm 1 m/S 753 mmHg 61%
    17:00 +22°C° 0 mm 1 m/S 753 mmHg 66%
    18:00 +20°C° 0 mm 1 m/S 753 mmHg 73%
    19:00 +18°C° 0 mm 1 m/S 753 mmHg 80%
    20:00 +15°C° 0 mm 1 m/S 753 mmHg 86%
    21:00 +14°C° 0 mm 1 m/S 753 mmHg 88%
    22:00 +13°C° 0 mm 1 m/S 754 mmHg 90%
    23:00 +13°C° 0 mm 1 m/S 754 mmHg 92%

    übermorgen, 26 August, Montag

    Zeit Temperatur Niederschläge Wind Luftdruck Luftfeuchtigkeit
    00:00 +13°C° 0 mm 1 m/S 754 mmHg 92%
    01:00 +12°C° 0 mm 1 m/S 754 mmHg 93%
    02:00 +11°C° 0 mm 0 m/S 754 mmHg 93%
    03:00 +11°C° 0 mm 0 m/S 754 mmHg 93%
    04:00 +10°C° 0 mm 0 m/S 754 mmHg 94%
    05:00 +10°C° 0 mm 0 m/S 754 mmHg 94%
    06:00 +12°C° 0 mm 0 m/S 754 mmHg 88%
    07:00 +14°C° 0 mm 0 m/S 754 mmHg 81%
    08:00 +16°C° 0 mm 0 m/S 753 mmHg 75%
    09:00 +18°C° 0 mm 0 m/S 753 mmHg 69%
    10:00 +20°C° 0 mm 0 m/S 753 mmHg 62%
    11:00 +23°C° 0 mm 1 m/S 753 mmHg 56%
    12:00 +23°C° 0 mm 1 m/S 753 mmHg 55%
    13:00 +24°C° 0 mm 1 m/S 753 mmHg 53%
    14:00 +24°C° 0 mm 2 m/S 752 mmHg 52%
    15:00 +23°C° 0 mm 2 m/S 752 mmHg 57%
    16:00 +23°C° 0 mm 2 m/S 751 mmHg 63%
    17:00 +21°C° 0 mm 2 m/S 751 mmHg 68%
    18:00 +19°C° 0 mm 2 m/S 751 mmHg 74%
    19:00 +17°C° 0 mm 2 m/S 751 mmHg 80%
    20:00 +15°C° 0 mm 1 m/S 750 mmHg 87%
    21:00 +15°C° 0 mm 1 m/S 750 mmHg 87%
    22:00 +15°C° 0 mm 1 m/S 750 mmHg 88%
    23:00 +14°C° 0 mm 2 m/S 750 mmHg 88%

    27 August, Dienstag

    Zeit Temperatur Niederschläge Wind Luftdruck Luftfeuchtigkeit
    00:00 +14°C° 0 mm 2 m/S 750 mmHg 89%
    01:00 +14°C° 0 mm 2 m/S 750 mmHg 89%
    02:00 +14°C° 0 mm 2 m/S 749 mmHg 90%
    03:00 +14°C° 0 mm 2 m/S 749 mmHg 92%
    04:00 +14°C° 0 mm 2 m/S 749 mmHg 95%
    05:00 +13°C° 0 mm 2 m/S 749 mmHg 97%
    06:00 +15°C° 0 mm 2 m/S 749 mmHg 93%
    07:00 +16°C° 0 mm 3 m/S 749 mmHg 88%
    08:00 +18°C° 0 mm 3 m/S 749 mmHg 84%
    09:00 +19°C° 0 mm 3 m/S 748 mmHg 77%
    10:00 +21°C° 0 mm 4 m/S 748 mmHg 70%
    11:00 +22°C° 0 mm 4 m/S 748 mmHg 63%
    12:00 +22°C° 0 mm 4 m/S 748 mmHg 61%
    13:00 +22°C° 0 mm 5 m/S 748 mmHg 59%
    14:00 +23°C° 0 mm 5 m/S 748 mmHg 57%
    15:00 +22°C° 0 mm 4 m/S 748 mmHg 59%
    16:00 +21°C° 0 mm 4 m/S 748 mmHg 61%
    17:00 +20°C° 0 mm 3 m/S 748 mmHg 63%
    18:00 +18°C° 0 mm 3 m/S 749 mmHg 68%
    19:00 +16°C° 0 mm 3 m/S 749 mmHg 73%
    20:00 +14°C° 0 mm 3 m/S 749 mmHg 78%
    21:00 +13°C° 0 mm 3 m/S 750 mmHg 82%
    22:00 +13°C° 0 mm 2 m/S 750 mmHg 86%
    23:00 +12°C° 0 mm 2 m/S 750 mmHg 90%

    28 August, Mittwoch

    Zeit Temperatur Niederschläge Wind Luftdruck Luftfeuchtigkeit
    00:00 +12°C° 0 mm 2 m/S 751 mmHg 91%
    01:00 +10°C° 0 mm 2 m/S 751 mmHg 93%
    02:00 +9°C° 0 mm 2 m/S 751 mmHg 95%
    03:00 +10°C° 0 mm 1 m/S 751 mmHg 94%
    04:00 +9°C° 0 mm 1 m/S 752 mmHg 94%
    05:00 +8°C° 0 mm 1 m/S 752 mmHg 94%
    06:00 +10°C° 0 mm 1 m/S 752 mmHg 85%
    07:00 +12°C° 0 mm 2 m/S 752 mmHg 75%
    08:00 +13°C° 0 mm 2 m/S 752 mmHg 66%
    09:00 +14°C° 0 mm 2 m/S 752 mmHg 60%
    10:00 +16°C° 0 mm 3 m/S 752 mmHg 53%
    11:00 +17°C° 0 mm 3 m/S 752 mmHg 46%
    12:00 +17°C° 0 mm 3 m/S 752 mmHg 45%
    13:00 +18°C° 0 mm 3 m/S 752 mmHg 44%
    14:00 +18°C° 0 mm 3 m/S 752 mmHg 43%
    15:00 +18°C° 0 mm 3 m/S 752 mmHg 48%
    16:00 +17°C° 0 mm 2 m/S 752 mmHg 52%
    17:00 +17°C° 0 mm 2 m/S 752 mmHg 57%
    18:00 +15°C° 0 mm 2 m/S 752 mmHg 62%
    19:00 +13°C° 0 mm 1 m/S 752 mmHg 66%
    20:00 +11°C° 0 mm 1 m/S 752 mmHg 71%
    21:00 +10°C° 0 mm 1 m/S 752 mmHg 72%
    22:00 +10°C° 0 mm 1 m/S 752 mmHg 72%
    23:00 +9°C° 0 mm 1 m/S 752 mmHg 73%

    29 August, Donnerstag

    Zeit Temperatur Niederschläge Wind Luftdruck Luftfeuchtigkeit
    00:00 +8°C° 0 mm 1 m/S 752 mmHg 74%
    01:00 +8°C° 0 mm 1 m/S 752 mmHg 74%
    02:00 +7°C° 0 mm 1 m/S 752 mmHg 75%
    03:00 +6°C° 0 mm 0 m/S 753 mmHg 75%
    04:00 +6°C° 0 mm 0 m/S 753 mmHg 75%
    05:00 +6°C° 0 mm 0 m/S 753 mmHg 75%
    06:00 +8°C° 0 mm 0 m/S 753 mmHg 69%
    07:00 +11°C° 0 mm 1 m/S 753 mmHg 63%
    08:00 +13°C° 0 mm 1 m/S 753 mmHg 57%
    09:00 +15°C° 0 mm 1 m/S 753 mmHg 53%
    10:00 +18°C° 0 mm 1 m/S 752 mmHg 49%
    11:00 +19°C° 0 mm 1 m/S 752 mmHg 46%
    12:00 +20°C° 0 mm 1 m/S 752 mmHg 48%
    13:00 +20°C° 0 mm 1 m/S 752 mmHg 49%
    14:00 +21°C° 0 mm 1 m/S 752 mmHg 51%
    15:00 +20°C° 0 mm 1 m/S 752 mmHg 58%
    16:00 +19°C° 0 mm 1 m/S 751 mmHg 65%
    17:00 +19°C° 0 mm 1 m/S 751 mmHg 71%
    18:00 +16°C° 0 mm 1 m/S 751 mmHg 76%
    19:00 +15°C° 0 mm 1 m/S 751 mmHg 81%
    20:00 +13°C° 0 mm 1 m/S 751 mmHg 86%
    21:00 +13°C° 0 mm 1 m/S 751 mmHg 88%
    22:00 +13°C° 0 mm 1 m/S 751 mmHg 89%
    23:00 +13°C° 0 mm 1 m/S 752 mmHg 90%
    Mehr zeigen